[[{"header":{"parameterUnit":"m.s-1","parameterCategory":1,"la1":30.2992,"la2":30.254,"lo1":-89.0895,"lo2":-89.0443,"dy":0.0025,"dx":0.0025,"nx":19,"ny":19,"refTime":"2026-03-18T21:00:00:Z","depth":0,"parameterNumber":2,"parameterNumberName":"U-component_of_WINDS"},"data":[0,0,0,1.2458,1.2459,1.2482,1.2482,1.2515,1.2515,0,0,0,0,0,0,0,0,0,0,0,1.2453,1.2453,1.2458,1.2459,1.2482,1.2482,1.2515,1.2515,0,0,0,0,0,0,0,0,0,0,0,1.2453,1.2453,1.2454,1.2459,1.2482,1.2482,1.2515,1.2496,0,0,0,0,0,0,0,0,0,0,1.2473,1.247,1.2453,1.2454,1.2459,1.2482,1.2482,1.2495,1.2498,1.2506,0,1.2514,0,1.2515,1.2518,1.2518,0,0,0,1.2457,1.2468,1.2473,1.2454,1.2459,1.2482,1.2471,1.2497,1.2499,1.2509,1.2514,1.2516,1.2516,1.2518,1.2518,1.2573,1.2573,0,0,1.2456,1.2458,1.2472,1.2475,1.2471,1.247,1.2472,1.2498,1.2504,1.2515,1.2516,1.2516,1.2518,1.2519,1.2573,1.2573,0,0,0,1.2453,1.2457,1.2461,1.2474,1.2477,1.2471,1.2473,1.2503,1.2504,1.2517,1.2517,1.2519,1.2519,1.2572,1.2573,1.2591,0,0,0,1.2453,1.2456,1.2461,1.2462,1.2477,1.249,1.2477,1.2502,1.2505,1.2517,1.2519,1.2519,1.2572,1.2573,1.2589,1.2598,0,0,0,1.2451,1.2455,1.2459,1.2462,1.2472,1.249,1.2492,1.2503,1.2505,1.2518,1.252,1.2572,1.2573,1.2588,1.2597,1.2614,0,0,0,1.245,1.2474,1.246,1.2487,1.2472,1.2501,1.2492,1.2513,1.2526,1.2519,1.2572,1.2573,1.2588,1.2595,1.2613,1.2628,1.2635,0,0,1.2481,1.2478,1.2494,1.2482,1.2514,1.2497,1.2532,1.2541,1.2541,1.2563,1.2564,1.259,1.2596,1.2614,1.2673,1.2679,0,0,0,1.2505,1.2516,1.2525,1.2537,1.2546,1.2555,1.2559,1.2564,1.2582,1.2552,1.2601,1.2605,1.2615,1.2622,1.2627,1.2635,1.2576,1.2576,1.2576,1.2552,1.2551,1.2578,1.258,1.2593,1.2598,1.2609,1.2615,1.2609,1.2621,1.2627,1.2664,1.2672,1.2676,1.2685,1.2636,1.2636,1.2636,1.2636,1.2598,1.2614,1.2608,1.2632,1.2631,1.2651,1.2659,1.2654,1.2673,1.2658,1.2667,1.2651,1.2682,1.269,1.2637,1.2637,1.2637,1.2637,1.2637,1.2628,1.2636,1.2641,1.2661,1.2677,1.2678,1.2698,1.2696,1.2695,1.2703,1.271,1.271,1.2709,1.2707,1.2707,1.2707,1.2707,1.2707,1.2707,1.2657,1.2662,1.2679,1.2692,1.2701,1.2713,1.272,1.2729,1.2739,1.2736,1.2736,1.273,1.2685,1.2674,1.2709,1.2709,1.2709,1.2709,1.2708,1.2704,1.2693,1.2718,1.2728,1.2744,1.276,1.2759,1.2778,1.2785,1.2795,1.2788,1.2755,1.2751,1.2747,1.2738,1.2788,1.2788,1.2788,1.2788,1.2729,1.2727,1.2753,1.2769,1.2784,1.2785,1.2815,1.2822,1.2828,1.2833,1.2825,1.2813,1.2809,1.2808,1.2803,1.2794,1.2857,1.2857,1.2857,1.2758,1.2758,1.2783,1.2789,1.2802,1.2814,1.2842,1.286,1.2864,1.286,1.2836,1.2833,1.2814,1.2807,1.2801,1.2793,1.2777,0,0]},{"header":{"parameterUnit":"m.s-1","parameterCategory":1,"la1":30.2992,"la2":30.254,"lo1":-89.0895,"lo2":-89.0443,"dy":0.0025,"dx":0.0025,"nx":19,"ny":19,"refTime":"2026-03-18T21:00:00:Z","depth":0,"parameterNumber":3,"parameterNumberName":"V-component_of_WINDS"},"data":[0,0,0,-1.1332,-1.1335,-1.1481,-1.1482,-1.166,-1.1662,0,0,0,0,0,0,0,0,0,0,0,-1.1284,-1.1285,-1.1332,-1.1335,-1.1481,-1.1482,-1.166,-1.1662,0,0,0,0,0,0,0,0,0,0,0,-1.1284,-1.1285,-1.1286,-1.1336,-1.1481,-1.1482,-1.166,-1.1552,0,0,0,0,0,0,0,0,0,0,-1.1412,-1.1363,-1.1284,-1.1286,-1.1337,-1.1481,-1.1482,-1.1547,-1.1559,-1.1591,0,-1.1617,0,-1.1642,-1.1673,-1.1674,0,0,0,-1.1339,-1.1353,-1.1397,-1.1286,-1.1338,-1.148,-1.1416,-1.1554,-1.1567,-1.1606,-1.162,-1.1627,-1.1645,-1.1674,-1.1675,-1.1845,-1.1846,0,0,-1.1331,-1.1308,-1.1388,-1.1405,-1.1382,-1.1412,-1.1421,-1.1562,-1.1576,-1.1621,-1.1631,-1.1648,-1.1675,-1.1677,-1.1845,-1.1845,0,0,0,-1.1306,-1.1302,-1.1342,-1.1398,-1.1424,-1.1416,-1.1426,-1.1569,-1.1585,-1.1633,-1.165,-1.1676,-1.1678,-1.1844,-1.1845,-1.1853,0,0,0,-1.1301,-1.1287,-1.1339,-1.1325,-1.1422,-1.1499,-1.143,-1.1575,-1.1591,-1.1649,-1.1676,-1.168,-1.1843,-1.1844,-1.1851,-1.1861,0,0,0,-1.1276,-1.1284,-1.1303,-1.1324,-1.1386,-1.1497,-1.152,-1.1579,-1.1602,-1.1674,-1.1681,-1.1843,-1.1844,-1.185,-1.1858,-1.19,0,0,0,-1.1243,-1.1308,-1.1303,-1.1382,-1.1384,-1.15,-1.152,-1.1607,-1.167,-1.1677,-1.1843,-1.1845,-1.1849,-1.1857,-1.1898,-1.193,-1.1941,0,0,-1.1311,-1.1315,-1.1363,-1.1363,-1.1474,-1.148,-1.1593,-1.1672,-1.1701,-1.1796,-1.18,-1.1852,-1.1858,-1.1899,-1.201,-1.2019,0,0,0,-1.1377,-1.1411,-1.1446,-1.1505,-1.1567,-1.1622,-1.1687,-1.1717,-1.1799,-1.1744,-1.1878,-1.1883,-1.1908,-1.1924,-1.1932,-1.1955,-1.1851,-1.1851,-1.1851,-1.1439,-1.1473,-1.1556,-1.1607,-1.1663,-1.1731,-1.178,-1.1832,-1.1848,-1.1879,-1.1908,-1.1971,-1.199,-1.1996,-1.202,-1.1927,-1.1927,-1.1927,-1.1927,-1.1543,-1.1598,-1.1619,-1.1707,-1.1742,-1.1817,-1.1884,-1.1894,-1.1969,-1.1952,-1.1976,-1.1956,-1.2004,-1.2027,-1.1928,-1.1928,-1.1928,-1.1928,-1.1928,-1.1588,-1.162,-1.1656,-1.1745,-1.181,-1.186,-1.1932,-1.1961,-1.1989,-1.2012,-1.2046,-1.2046,-1.2051,-1.2026,-1.2027,-1.2027,-1.2027,-1.2027,-1.2027,-1.1621,-1.1661,-1.1718,-1.179,-1.1833,-1.1892,-1.1961,-1.2004,-1.2059,-1.2074,-1.2075,-1.2089,-1.2002,-1.198,-1.2031,-1.203,-1.203,-1.2029,-1.2029,-1.1715,-1.1699,-1.1786,-1.1829,-1.1918,-1.1981,-1.2018,-1.2102,-1.2142,-1.2177,-1.2186,-1.2117,-1.2122,-1.2117,-1.2099,-1.2178,-1.2178,-1.2178,-1.2178,-1.1754,-1.176,-1.1857,-1.1923,-1.1991,-1.2034,-1.2132,-1.2187,-1.2241,-1.2268,-1.226,-1.2239,-1.2232,-1.2242,-1.2234,-1.2218,-1.2325,-1.2325,-1.2325,-1.1815,-1.1829,-1.1907,-1.1959,-1.2031,-1.2092,-1.2187,-1.2263,-1.232,-1.2332,-1.2289,-1.2283,-1.2249,-1.2236,-1.2246,-1.2233,-1.2204,0,0]}]]